Location: Rumah Long Bangan
(2.8362°N, 113.7519°E)
Time: 18:23:43
(UTC+00:00)

Ariane H10 - Pass Details

Date: 24 October 2021
Orbit: 368 x 35063 km, 3.8° (Epoch: 07 December)

Event Time Altitude Azimuth Distance (km) Brightness Sun altitude
Exits shadow 21:11:12 18° 236° (SW) 1,248 4.2 -14.8°
Maximum altitude 21:13:15 45° 167° (SSE) 907 4.1 -14.2°
Drops below altitude 10° 21:21:35 10° 95° (E) 4,608 9.0 -12.2°
Sets 21:30:35 0° 91° (E) 8,529 10.8 -10.0°
